Tracking 29487 objects as of 11-Sep-2024
HD Live streaming from Space Station
objects crossing your sky now

TITAN 3C TRANSTAGE R/B

Track TITAN 3C TRANSTAGE R/B now!


NORAD ID: 2770
Int'l Code: 1967-040F
Perigee: 7,557.3 km
Apogee: 112,142.5 km
Inclination: 17.8 °
Period: 2,826.5 minutes
Semi major axis: 66220 km
RCS: 3.1623 m2 (large)
Launch date: April 28, 1967
Source: United States (US)
Launch site: AIR FORCE EASTERN TEST RANGE (AFETR)

Note: This is a ROCKET BODY
Your satellite tracking list
Your tracking list is empty




NASA's NSSDC Master Catalog

Two Line Element Set (TLE):
1 02770U 67040F   24256.31245351 -.00000802  00000-0  00000-0 0  9997
2 02770  17.7662 227.8834 7896690 317.9155 359.4608  0.50945998 20058
Source of the keplerian elements: AFSPC